Location: Freiburg+im+Breisgau
(48.0359°N, 7.8195°E)
Time: 10:55:01
(UTC+01:00)

ISS - Pass Details

Date: 13 January 2018
Orbit: 402 x 407 km, 51.6° (Epoch: 18 January)

Event Time Altitude Azimuth Distance (km) Brightness Sun altitude
Exits shadow 07:06:34 15° 260° (W) 1,222 -1.9 -11.1°
Maximum altitude 07:08:18 21° 220° (SW) 966 -2.1 -10.9°
Drops below altitude 10° 07:10:52 10° 168° (SSE) 1,460 -0.6 -10.5°
Sets 07:13:14 0° 152° (SSE) 2,317 0.8 -10.1°
